Simultaneous Nadir Overpasses (SNOs) Predictions

Prediction of SNOs between GOES-16 and FY3D Satellite Orbit:

Table of predicted SNOs for the next 14.0 days since TLE Epoch: 3/18/2023
Index Date Time (GOES-16) GOES-16 Lat,Lon FY3D Lat,Lon Distance(km) Time Diff (sec)
1 03/18/2023 06:59:10 -0.06, -75.20 -0.13, -74.77 49.09 80
2 03/20/2023 19:05:59 0.05, -75.22 -0.06, -75.74 58.87 80
3 03/21/2023 18:44:57 0.06, -75.24 0.97, -71.30 449.62 80
4 03/23/2023 07:09:58 -0.05, -75.25 0.29, -76.67 162.39 80
5 03/24/2023 06:48:57 -0.06, -75.27 -0.76, -72.23 346.39 80
6 03/25/2023 19:14:07 0.05, -75.29 -0.45, -77.65 268.32 80
7 03/26/2023 18:53:05 0.05, -75.31 0.54, -73.20 240.89 80
8 03/28/2023 07:18:06 -0.04, -75.33 0.70, -78.58 369.89 80
9 03/29/2023 06:57:04 -0.04, -75.35 -0.31, -74.12 139.56 80
10 03/30/2023 19:22:14 0.03, -75.38 -0.89, -79.55 474.22 80
11 03/31/2023 19:01:11 0.03, -75.41 0.11, -75.10 35.83 80
